Location: Hohe Wand Kleine Kanzel
(47.8330°N, 16.0170°E)
Time: 14:35:37
(UTC+02:00)

METEOR M2 - Visible Passes

Search period start: 20 September 2021 00:00
Search period end: 30 September 2021 00:00
Orbit: 818 x 827 km, 98.5° (Epoch: 20 September)

Date Brightness Start Highest point End Pass type
(mag) Time Alt. Az. Time Alt. Az. Time Alt. Az.
20 Sep ? 19:32:13 10° SSE 19:37:34 84° WSW 19:42:58 10° NNW visible
20 Sep ? 21:16:18 10° WSW 21:18:34 13° W 21:20:52 10° WNW visible
21 Sep ? 20:54:40 10° SW 20:58:21 19° W 21:02:05 10° NW visible
22 Sep ? 20:33:43 10° SSW 20:38:13 27° W 20:42:45 10° NW visible
23 Sep ? 20:13:10 10° SSW 20:18:08 39° W 20:23:10 10° NNW visible
24 Sep ? 19:52:52 10° S 19:58:06 57° W 20:03:25 10° NNW visible
25 Sep ? 19:32:48 10° SSE 19:38:09 82° WSW 19:43:33 10° NNW visible
25 Sep ? 21:17:01 10° WSW 21:19:10 12° W 21:21:19 10° WNW visible
26 Sep ? 19:12:56 10° SSE 19:18:15 70° ENE 19:23:36 10° N visible
26 Sep ? 20:55:19 10° SW 20:58:57 18° W 21:02:37 10° NW visible
27 Sep ? 20:34:21 10° SSW 20:38:49 27° W 20:43:19 10° NW visible
28 Sep ? 20:13:46 10° SSW 20:18:43 38° W 20:23:44 10° NNW visible
29 Sep ? 19:53:28 10° S 19:58:42 56° W 20:03:59 10° NNW visible
